Time,TemperatureF,DewpointF,PressureIn,WindDirection,WindDirectionDegrees,WindSpeedMPH,WindSpeedGustMPH,Humidity,HourlyPrecipIn,Conditions,Clouds,dailyrainin,SoftwareType,DateUTC
2013-05-06 00:01:00,50.7,50.7,29.83,WSW,239,0.0,0.0,100,0.15,,,0.01,Wunderground v.1.15,2013-05-06 04:01:00,
2013-05-06 00:02:00,50.8,50.8,29.83,WSW,239,0.0,0.0,100,0.15,,,0.01,Wunderground v.1.15,2013-05-06 04:02:00,
2013-05-06 00:03:00,50.8,50.8,29.83,WSW,239,0.0,0.0,100,0.15,,,0.01,Wunderground v.1.15,2013-05-06 04:03:00,
2013-05-06 00:09:00,50.7,50.7,29.83,SSW,197,0.0,0.0,100,0.16,,,0.03,Wunderground v.1.15,2013-05-06 04:09:00,
2013-05-06 00:14:00,50.6,50.6,29.83,SSW,197,0.0,0.0,100,0.16,,,0.04,Wunderground v.1.15,2013-05-06 04:14:00,
2013-05-06 00:19:00,50.6,50.6,29.83,South,170,0.0,0.0,100,0.13,,,0.05,Wunderground v.1.15,2013-05-06 04:19:00,
2013-05-06 00:24:00,50.6,50.6,29.82,SE,134,0.0,0.0,100,0.20,,,0.07,Wunderground v.1.15,2013-05-06 04:24:00,
2013-05-06 00:29:00,50.5,50.5,29.81,SE,134,0.0,0.0,100,0.23,,,0.08,Wunderground v.1.15,2013-05-06 04:29:00,
2013-05-06 00:35:00,50.3,50.3,29.81,East,93,2.0,2.0,100,0.17,,,0.10,Wunderground v.1.15,2013-05-06 04:35:00,
2013-05-06 00:40:00,50.3,50.3,29.81,ESE,113,2.0,2.0,100,0.38,,,0.13,Wunderground v.1.15,2013-05-06 04:40:00,
2013-05-06 00:45:00,50.2,50.2,29.80,East,85,0.0,2.0,100,0.22,,,0.14,Wunderground v.1.15,2013-05-06 04:45:00,
2013-05-06 00:50:00,49.9,49.9,29.79,ENE,61,4.0,4.0,100,0.11,,,0.15,Wunderground v.1.15,2013-05-06 04:50:00,
2013-05-06 00:55:00,49.8,49.8,29.78,SSE,158,2.0,4.0,100,0.08,,,0.15,Wunderground v.1.15,2013-05-06 04:55:00,
2013-05-06 01:01:00,49.6,49.6,29.78,ENE,77,2.0,3.0,100,0.05,,,0.15,Wunderground v.1.15,2013-05-06 05:01:00,
2013-05-06 01:06:00,49.7,49.7,29.78,ENE,62,1.0,3.0,100,0.00,,,0.15,Wunderground v.1.15,2013-05-06 05:06:00,
2013-05-06 01:11:00,49.8,49.8,29.77,ESE,110,0.0,3.0,100,0.00,,,0.15,Wunderground v.1.15,2013-05-06 05:11:00,
2013-05-06 01:16:00,49.8,49.8,29.78,East,98,0.0,3.0,100,0.00,,,0.15,Wunderground v.1.15,2013-05-06 05:16:00,
2013-05-06 01:21:00,49.7,49.7,29.78,ESE,113,0.0,1.0,100,0.00,,,0.15,Wunderground v.1.15,2013-05-06 05:21:00,
2013-05-06 01:27:00,49.6,49.6,29.78,SW,236,0.0,0.0,100,0.00,,,0.15,Wunderground v.1.15,2013-05-06 05:27:00,
2013-05-06 01:32:00,49.5,49.5,29.78,South,176,0.0,0.0,100,0.00,,,0.15,Wunderground v.1.15,2013-05-06 05:32:00,
2013-05-06 01:37:00,49.4,49.4,29.78,South,180,0.0,0.0,100,0.00,,,0.15,Wunderground v.1.15,2013-05-06 05:37:00,
2013-05-06 01:42:00,49.2,49.2,29.78,South,189,0.0,0.0,100,0.00,,,0.15,Wunderground v.1.15,2013-05-06 05:42:00,
2013-05-06 01:47:00,49.1,49.1,29.78,South,189,0.0,0.0,100,0.00,,,0.15,Wunderground v.1.15,2013-05-06 05:47:00,
2013-05-06 01:53:00,49.1,49.1,29.78,WSW,242,0.0,1.0,100,0.00,,,0.15,Wunderground v.1.15,2013-05-06 05:53:00,
2013-05-06 01:58:00,49.1,49.1,29.79,WSW,242,0.0,0.0,100,0.00,,,0.15,Wunderground v.1.15,2013-05-06 05:58:00,
2013-05-06 02:03:00,49.1,49.1,29.79,WSW,242,0.0,0.0,100,0.00,,,0.15,Wunderground v.1.15,2013-05-06 06:03:00,
2013-05-06 02:08:00,49.0,49.0,29.78,WSW,253,1.0,1.0,100,0.00,,,0.15,Wunderground v.1.15,2013-05-06 06:08:00,
2013-05-06 02:13:00,48.9,48.9,29.79,WSW,253,0.0,1.0,100,0.00,,,0.15,Wunderground v.1.15,2013-05-06 06:13:00,
2013-05-06 02:18:00,48.8,48.8,29.79,West,262,2.0,3.0,100,0.00,,,0.15,Wunderground v.1.15,2013-05-06 06:18:00,
2013-05-06 02:23:00,48.9,48.9,29.79,WSW,246,3.0,3.0,100,0.00,,,0.15,Wunderground v.1.15,2013-05-06 06:23:00,
2013-05-06 02:28:00,49.0,49.0,29.79,SW,217,1.0,1.0,100,0.00,,,0.15,Wunderground v.1.15,2013-05-06 06:28:00,
2013-05-06 02:33:00,48.9,48.9,29.79,WSW,255,1.0,1.0,100,0.00,,,0.15,Wunderground v.1.15,2013-05-06 06:33:00,
2013-05-06 02:38:00,48.8,48.8,29.79,West,262,0.0,0.0,100,0.00,,,0.15,Wunderground v.1.15,2013-05-06 06:38:00,
2013-05-06 02:43:00,48.7,48.7,29.79,SW,228,0.0,2.0,100,0.00,,,0.15,Wunderground v.1.15,2013-05-06 06:43:00,
2013-05-06 02:48:00,48.7,48.7,29.78,SW,219,0.0,0.0,100,0.00,,,0.15,Wunderground v.1.15,2013-05-06 06:48:00,
2013-05-06 02:53:00,48.7,48.7,29.78,SW,219,0.0,0.0,100,0.00,,,0.15,Wunderground v.1.15,2013-05-06 06:53:00,
2013-05-06 02:58:00,48.6,48.6,29.78,SW,219,0.0,1.0,100,0.00,,,0.15,Wunderground v.1.15,2013-05-06 06:58:00,
2013-05-06 03:03:00,48.6,48.6,29.78,West,274,1.0,1.0,100,0.00,,,0.15,Wunderground v.1.15,2013-05-06 07:03:00,
2013-05-06 03:08:00,48.6,48.6,29.78,West,274,0.0,0.0,100,0.00,,,0.15,Wunderground v.1.15,2013-05-06 07:08:00,
2013-05-06 03:13:00,48.5,48.5,29.78,West,274,0.0,0.0,100,0.00,,,0.15,Wunderground v.1.15,2013-05-06 07:13:00,
2013-05-06 03:18:00,48.5,48.5,29.78,West,266,0.0,0.0,100,0.00,,,0.15,Wunderground v.1.15,2013-05-06 07:18:00,
2013-05-06 03:23:00,48.5,48.5,29.78,West,262,0.0,1.0,100,0.00,,,0.15,Wunderground v.1.15,2013-05-06 07:23:00,
2013-05-06 03:28:00,48.5,48.5,29.78,WSW,255,0.0,0.0,100,0.00,,,0.15,Wunderground v.1.15,2013-05-06 07:28:00,
2013-05-06 03:33:00,48.6,48.6,29.78,WSW,255,0.0,0.0,100,0.00,,,0.15,Wunderground v.1.15,2013-05-06 07:33:00,
2013-05-06 03:38:00,48.6,48.6,29.78,WSW,255,0.0,1.0,100,0.00,,,0.15,Wunderground v.1.15,2013-05-06 07:38:00,
2013-05-06 03:43:00,48.5,48.5,29.78,West,264,0.0,1.0,100,0.00,,,0.15,Wunderground v.1.15,2013-05-06 07:43:00,
2013-05-06 03:48:00,48.4,48.4,29.78,West,264,0.0,1.0,100,0.00,,,0.15,Wunderground v.1.15,2013-05-06 07:48:00,
2013-05-06 03:53:00,48.3,48.3,29.78,West,264,0.0,1.0,100,0.00,,,0.15,Wunderground v.1.15,2013-05-06 07:53:00,
2013-05-06 03:58:00,48.1,48.1,29.78,West,264,0.0,0.0,100,0.00,,,0.15,Wunderground v.1.15,2013-05-06 07:58:00,
2013-05-06 04:03:00,47.9,47.9,29.78,West,264,0.0,0.0,100,0.00,,,0.15,Wunderground v.1.15,2013-05-06 08:03:00,
2013-05-06 04:08:00,47.8,47.8,29.78,West,264,0.0,0.0,100,0.00,,,0.15,Wunderground v.1.15,2013-05-06 08:08:00,
2013-05-06 04:13:00,47.7,47.7,29.78,West,264,0.0,0.0,100,0.00,,,0.15,Wunderground v.1.15,2013-05-06 08:13:00,
2013-05-06 04:18:00,47.5,47.5,29.77,West,264,0.0,0.0,100,0.00,,,0.15,Wunderground v.1.15,2013-05-06 08:18:00,
2013-05-06 04:23:00,47.4,47.4,29.77,West,264,0.0,0.0,100,0.00,,,0.15,Wunderground v.1.15,2013-05-06 08:23:00,
2013-05-06 04:28:00,47.3,47.3,29.77,West,264,0.0,0.0,100,0.00,,,0.15,Wunderground v.1.15,2013-05-06 08:28:00,
2013-05-06 04:33:00,47.2,47.2,29.77,SE,137,0.0,0.0,100,0.00,,,0.15,Wunderground v.1.15,2013-05-06 08:33:00,
2013-05-06 04:38:00,46.9,46.9,29.77,SE,137,0.0,0.0,100,0.00,,,0.15,Wunderground v.1.15,2013-05-06 08:38:00,
2013-05-06 04:43:00,46.7,46.7,29.77,SE,136,0.0,0.0,100,0.00,,,0.15,Wunderground v.1.15,2013-05-06 08:43:00,
2013-05-06 04:48:00,46.7,46.7,29.77,SE,137,0.0,0.0,100,0.00,,,0.15,Wunderground v.1.15,2013-05-06 08:48:00,
2013-05-06 04:53:00,46.6,46.6,29.78,SE,137,0.0,0.0,100,0.00,,,0.15,Wunderground v.1.15,2013-05-06 08:53:00,
2013-05-06 04:58:00,46.5,46.5,29.78,SSE,155,0.0,0.0,100,0.00,,,0.15,Wunderground v.1.15,2013-05-06 08:58:00,
2013-05-06 05:03:00,46.2,46.2,29.78,SSE,155,0.0,0.0,100,0.00,,,0.15,Wunderground v.1.15,2013-05-06 09:03:00,
2013-05-06 05:08:00,45.9,45.9,29.77,SSE,155,0.0,0.0,100,0.00,,,0.15,Wunderground v.1.15,2013-05-06 09:08:00,
2013-05-06 05:13:00,45.7,45.7,29.78,SSE,155,0.0,0.0,100,0.00,,,0.15,Wunderground v.1.15,2013-05-06 09:13:00,
2013-05-06 05:18:00,45.6,45.6,29.78,SSE,155,0.0,0.0,100,0.00,,,0.15,Wunderground v.1.15,2013-05-06 09:18:00,
2013-05-06 05:23:00,45.4,45.4,29.78,SSE,155,0.0,0.0,100,0.00,,,0.15,Wunderground v.1.15,2013-05-06 09:23:00,
2013-05-06 05:28:00,45.3,45.3,29.78,WNW,287,0.0,0.0,100,0.00,,,0.15,Wunderground v.1.15,2013-05-06 09:28:00,
2013-05-06 05:33:00,44.7,44.7,29.78,West,262,0.0,2.0,100,0.00,,,0.15,Wunderground v.1.15,2013-05-06 09:33:00,
2013-05-06 05:38:00,44.6,44.6,29.78,West,262,0.0,1.0,100,0.00,,,0.15,Wunderground v.1.15,2013-05-06 09:38:00,
2013-05-06 05:43:00,44.7,44.7,29.78,West,261,0.0,1.0,100,0.00,,,0.15,Wunderground v.1.15,2013-05-06 09:43:00,
2013-05-06 05:48:00,44.7,44.7,29.78,West,262,0.0,0.0,100,0.00,,,0.15,Wunderground v.1.15,2013-05-06 09:48:00,
2013-05-06 05:53:00,44.7,44.7,29.78,West,262,0.0,0.0,100,0.00,,,0.15,Wunderground v.1.15,2013-05-06 09:53:00,
2013-05-06 05:58:00,44.9,44.9,29.78,NW,304,0.0,0.0,100,0.00,,,0.15,Wunderground v.1.15,2013-05-06 09:58:00,
2013-05-06 06:03:00,45.1,45.1,29.78,NW,304,0.0,0.0,100,0.00,,,0.16,Wunderground v.1.15,2013-05-06 10:03:00,
2013-05-06 06:08:00,45.1,45.1,29.78,NW,304,0.0,0.0,100,0.00,,,0.16,Wunderground v.1.15,2013-05-06 10:08:00,
2013-05-06 06:13:00,44.9,44.9,29.79,SW,236,1.0,2.0,100,0.00,,,0.16,Wunderground v.1.15,2013-05-06 10:13:00,
2013-05-06 06:18:00,44.8,44.8,29.78,WSW,257,0.0,1.0,100,0.00,,,0.16,Wunderground v.1.15,2013-05-06 10:18:00,
2013-05-06 06:23:00,44.7,44.7,29.78,WSW,242,1.0,1.0,100,0.00,,,0.16,Wunderground v.1.15,2013-05-06 10:23:00,
2013-05-06 06:28:00,44.4,44.4,29.79,WSW,255,1.0,2.0,100,0.00,,,0.16,Wunderground v.1.15,2013-05-06 10:28:00,
2013-05-06 06:33:00,44.2,44.2,29.79,West,266,0.0,2.0,100,0.00,,,0.16,Wunderground v.1.15,2013-05-06 10:33:00,
2013-05-06 06:38:00,44.2,44.2,29.79,SW,226,0.0,1.0,100,0.00,,,0.16,Wunderground v.1.15,2013-05-06 10:38:00,
2013-05-06 06:43:00,44.2,44.2,29.79,WSW,247,1.0,2.0,100,0.00,,,0.16,Wunderground v.1.15,2013-05-06 10:43:00,
2013-05-06 06:48:00,44.2,44.2,29.79,West,260,2.0,2.0,100,0.00,,,0.16,Wunderground v.1.15,2013-05-06 10:48:00,
2013-05-06 06:53:00,44.3,44.3,29.80,SSW,211,1.0,2.0,100,0.00,,,0.16,Wunderground v.1.15,2013-05-06 10:53:00,
2013-05-06 06:58:00,44.3,44.3,29.80,SW,236,2.0,2.0,100,0.00,,,0.16,Wunderground v.1.15,2013-05-06 10:58:00,
2013-05-06 07:03:00,44.5,44.5,29.80,WSW,249,0.0,2.0,100,0.00,,,0.16,Wunderground v.1.15,2013-05-06 11:03:00,
2013-05-06 07:08:00,44.7,44.7,29.80,WSW,249,0.0,0.0,100,0.00,,,0.16,Wunderground v.1.15,2013-05-06 11:08:00,
2013-05-06 07:13:00,44.9,44.9,29.81,SW,236,0.0,2.0,100,0.00,,,0.16,Wunderground v.1.15,2013-05-06 11:13:00,
2013-05-06 07:18:00,45.2,45.2,29.81,SW,236,0.0,0.0,100,0.00,,,0.16,Wunderground v.1.15,2013-05-06 11:18:00,
2013-05-06 07:23:00,45.4,45.4,29.81,SW,236,0.0,0.0,100,0.00,,,0.16,Wunderground v.1.15,2013-05-06 11:23:00,
2013-05-06 07:28:00,45.6,45.6,29.81,SW,236,0.0,0.0,100,0.00,,,0.16,Wunderground v.1.15,2013-05-06 11:28:00,
2013-05-06 07:33:00,45.8,45.8,29.82,WSW,237,0.0,0.0,100,0.00,,,0.16,Wunderground v.1.15,2013-05-06 11:33:00,
2013-05-06 07:38:00,46.0,46.0,29.82,WSW,237,0.0,0.0,100,0.00,,,0.16,Wunderground v.1.15,2013-05-06 11:38:00,
2013-05-06 07:43:00,46.3,46.3,29.82,SW,236,0.0,0.0,100,0.00,,,0.16,Wunderground v.1.15,2013-05-06 11:43:00,
2013-05-06 07:48:00,46.5,46.5,29.83,SW,236,0.0,0.0,100,0.00,,,0.16,Wunderground v.1.15,2013-05-06 11:48:00,
2013-05-06 07:53:00,46.8,46.8,29.83,SW,236,0.0,0.0,100,0.00,,,0.16,Wunderground v.1.15,2013-05-06 11:53:00,
2013-05-06 07:58:00,47.1,47.1,29.83,SW,236,0.0,0.0,100,0.00,,,0.17,Wunderground v.1.15,2013-05-06 11:58:00,
2013-05-06 08:03:00,47.3,47.3,29.83,SW,236,0.0,0.0,100,0.00,,,0.17,Wunderground v.1.15,2013-05-06 12:03:00,
2013-05-06 08:08:00,47.6,47.6,29.83,SW,236,0.0,0.0,100,0.00,,,0.17,Wunderground v.1.15,2013-05-06 12:08:00,
2013-05-06 08:13:00,47.7,47.7,29.83,SW,236,0.0,0.0,100,0.00,,,0.17,Wunderground v.1.15,2013-05-06 12:13:00,
2013-05-06 08:18:00,47.8,47.8,29.83,SW,236,0.0,0.0,100,0.00,,,0.17,Wunderground v.1.15,2013-05-06 12:18:00,
2013-05-06 08:23:00,47.9,47.9,29.83,WSW,237,0.0,0.0,100,0.00,,,0.17,Wunderground v.1.15,2013-05-06 12:23:00,
2013-05-06 08:28:00,48.0,48.0,29.83,SW,236,0.0,0.0,100,0.00,,,0.17,Wunderground v.1.15,2013-05-06 12:28:00,
2013-05-06 08:33:00,48.0,48.0,29.83,SW,236,0.0,0.0,100,0.00,,,0.17,Wunderground v.1.15,2013-05-06 12:33:00,
2013-05-06 08:38:00,48.1,48.1,29.83,SW,236,0.0,0.0,100,0.00,,,0.17,Wunderground v.1.15,2013-05-06 12:38:00,
2013-05-06 08:43:00,48.3,48.3,29.83,SW,236,0.0,0.0,100,0.00,,,0.17,Wunderground v.1.15,2013-05-06 12:43:00,
2013-05-06 08:48:00,48.6,48.6,29.83,SW,236,0.0,0.0,100,0.00,,,0.17,Wunderground v.1.15,2013-05-06 12:48:00,
2013-05-06 08:53:00,48.7,48.7,29.83,SW,236,0.0,0.0,100,0.00,,,0.17,Wunderground v.1.15,2013-05-06 12:53:00,
2013-05-06 08:58:00,48.7,48.7,29.83,SW,236,0.0,0.0,100,0.00,,,0.17,Wunderground v.1.15,2013-05-06 12:58:00,
2013-05-06 09:03:00,48.8,48.8,29.83,WSW,237,0.0,0.0,100,0.00,,,0.17,Wunderground v.1.15,2013-05-06 13:03:00,
2013-05-06 09:09:00,48.9,48.9,29.83,SW,236,0.0,0.0,100,0.00,,,0.17,Wunderground v.1.15,2013-05-06 13:09:00,
2013-05-06 09:14:00,48.8,48.8,29.83,WSW,250,0.0,1.0,100,0.00,,,0.17,Wunderground v.1.15,2013-05-06 13:14:00,
2013-05-06 09:19:00,49.1,49.1,29.83,WSW,250,0.0,0.0,100,0.00,,,0.17,Wunderground v.1.15,2013-05-06 13:19:00,
2013-05-06 09:24:00,49.4,49.4,29.83,WSW,254,0.0,0.0,100,0.00,,,0.17,Wunderground v.1.15,2013-05-06 13:24:00,
2013-05-06 09:29:00,49.4,49.4,29.84,West,266,2.0,2.0,100,0.00,,,0.17,Wunderground v.1.15,2013-05-06 13:29:00,
2013-05-06 09:34:00,49.1,49.1,29.84,WNW,295,2.0,3.0,100,0.00,,,0.17,Wunderground v.1.15,2013-05-06 13:34:00,
2013-05-06 09:39:00,49.6,49.6,29.84,West,259,1.0,3.0,100,0.00,,,0.17,Wunderground v.1.15,2013-05-06 13:39:00,
2013-05-06 09:44:00,49.6,49.6,29.84,West,275,2.0,5.0,100,0.00,,,0.17,Wunderground v.1.15,2013-05-06 13:44:00,
2013-05-06 09:49:00,49.9,49.9,29.84,SW,231,2.0,4.0,100,0.00,,,0.17,Wunderground v.1.15,2013-05-06 13:49:00,
2013-05-06 09:54:00,50.1,50.1,29.84,WSW,245,1.0,4.0,100,0.00,,,0.17,Wunderground v.1.15,2013-05-06 13:54:00,
2013-05-06 09:59:00,50.3,50.3,29.84,West,270,2.0,4.0,100,0.00,,,0.17,Wunderground v.1.15,2013-05-06 13:59:00,
2013-05-06 10:04:00,50.3,50.3,29.84,SW,229,2.0,6.0,100,0.00,,,0.17,Wunderground v.1.15,2013-05-06 14:04:00,
2013-05-06 10:09:00,50.5,50.5,29.84,SW,236,4.0,6.0,100,0.00,,,0.17,Wunderground v.1.15,2013-05-06 14:09:00,
2013-05-06 10:14:00,50.0,50.0,29.84,West,264,4.0,8.0,100,0.00,,,0.17,Wunderground v.1.15,2013-05-06 14:14:00,
2013-05-06 10:19:00,50.4,50.4,29.84,SE,131,0.0,4.0,100,0.00,,,0.17,Wunderground v.1.15,2013-05-06 14:19:00,
2013-05-06 10:24:00,50.4,50.4,29.85,SSE,150,0.0,4.0,100,0.00,,,0.17,Wunderground v.1.15,2013-05-06 14:24:00,
2013-05-06 10:29:00,50.6,50.6,29.85,West,266,4.0,6.0,100,0.00,,,0.17,Wunderground v.1.15,2013-05-06 14:29:00,
2013-05-06 10:34:00,51.2,51.2,29.85,SSW,211,0.0,7.0,100,0.00,,,0.17,Wunderground v.1.15,2013-05-06 14:34:00,
2013-05-06 10:39:00,50.9,50.9,29.85,WSW,252,5.0,8.0,100,0.00,,,0.17,Wunderground v.1.15,2013-05-06 14:39:00,
2013-05-06 10:44:00,50.7,50.7,29.85,WSW,257,2.0,8.0,100,0.00,,,0.17,Wunderground v.1.15,2013-05-06 14:44:00,
2013-05-06 10:49:00,50.8,50.8,29.85,WSW,257,3.0,6.0,100,0.00,,,0.17,Wunderground v.1.15,2013-05-06 14:49:00,
2013-05-06 10:54:00,51.0,51.0,29.85,SW,214,1.0,7.0,100,0.00,,,0.17,Wunderground v.1.15,2013-05-06 14:54:00,
2013-05-06 10:59:00,51.2,51.2,29.85,West,269,5.0,7.0,100,0.00,,,0.17,Wunderground v.1.15,2013-05-06 14:59:00,
2013-05-06 11:04:00,51.3,51.0,29.85,WNW,291,6.0,8.0,99,0.00,,,0.17,Wunderground v.1.15,2013-05-06 15:04:00,
2013-05-06 11:09:00,51.5,51.0,29.85,WSW,242,4.0,7.0,98,0.00,,,0.17,Wunderground v.1.15,2013-05-06 15:09:00,
2013-05-06 11:14:00,52.0,50.9,29.85,WSW,256,3.0,7.0,96,0.00,,,0.17,Wunderground v.1.15,2013-05-06 15:14:00,
2013-05-06 11:19:00,52.7,51.6,29.86,West,259,1.0,5.0,96,0.00,,,0.17,Wunderground v.1.15,2013-05-06 15:19:00,
2013-05-06 11:24:00,53.1,51.4,29.86,WSW,252,4.0,6.0,94,0.00,,,0.17,Wunderground v.1.15,2013-05-06 15:24:00,
2013-05-06 11:29:00,53.2,50.9,29.86,SSW,203,1.0,5.0,92,0.00,,,0.17,Wunderground v.1.15,2013-05-06 15:29:00,
2013-05-06 11:34:00,53.3,51.0,29.86,SW,226,3.0,5.0,92,0.00,,,0.17,Wunderground v.1.15,2013-05-06 15:34:00,
2013-05-06 11:39:00,53.3,50.4,29.86,SW,236,9.0,10.0,90,0.00,,,0.17,Wunderground v.1.15,2013-05-06 15:39:00,
2013-05-06 11:44:00,53.4,50.5,29.86,SW,217,5.0,10.0,90,0.00,,,0.17,Wunderground v.1.15,2013-05-06 15:44:00,
2013-05-06 11:49:00,53.7,50.8,29.86,West,259,9.0,9.0,90,0.00,,,0.17,Wunderground v.1.15,2013-05-06 15:49:00,
2013-05-06 11:54:00,53.9,50.7,29.86,SW,221,2.0,9.0,89,0.00,,,0.17,Wunderground v.1.15,2013-05-06 15:54:00,
2013-05-06 11:59:00,53.8,50.9,29.86,SW,229,1.0,5.0,90,0.00,,,0.17,Wunderground v.1.15,2013-05-06 15:59:00,
2013-05-06 12:04:00,53.9,50.7,29.86,South,173,2.0,10.0,89,0.00,,,0.17,Wunderground v.1.15,2013-05-06 16:04:00,
2013-05-06 12:09:00,54.0,50.8,29.86,WSW,255,1.0,5.0,89,0.00,,,0.17,Wunderground v.1.15,2013-05-06 16:09:00,
2013-05-06 12:14:00,54.3,51.1,29.86,SW,236,1.0,5.0,89,0.00,,,0.17,Wunderground v.1.15,2013-05-06 16:14:00,
2013-05-06 12:19:00,54.3,51.1,29.85,West,264,5.0,7.0,89,0.00,,,0.17,Wunderground v.1.15,2013-05-06 16:19:00,
2013-05-06 12:24:00,54.3,50.5,29.85,WSW,252,3.0,8.0,87,0.00,,,0.17,Wunderground v.1.15,2013-05-06 16:24:00,
2013-05-06 12:29:00,54.5,50.7,29.85,SW,233,7.0,9.0,87,0.00,,,0.17,Wunderground v.1.15,2013-05-06 16:29:00,
2013-05-06 12:34:00,54.3,50.5,29.85,WSW,257,4.0,9.0,87,0.00,,,0.17,Wunderground v.1.15,2013-05-06 16:34:00,
2013-05-06 12:39:00,54.7,51.5,29.85,SSW,204,3.0,6.0,89,0.00,,,0.17,Wunderground v.1.15,2013-05-06 16:39:00,
2013-05-06 12:44:00,55.3,51.2,29.85,WSW,253,3.0,11.0,86,0.00,,,0.17,Wunderground v.1.15,2013-05-06 16:44:00,
2013-05-06 12:49:00,55.5,51.7,29.85,WSW,257,9.0,11.0,87,0.00,,,0.17,Wunderground v.1.15,2013-05-06 16:49:00,
2013-05-06 12:54:00,55.8,51.4,29.85,West,276,4.0,11.0,85,0.00,,,0.17,Wunderground v.1.15,2013-05-06 16:54:00,
2013-05-06 12:59:00,55.8,51.7,29.85,SW,236,0.0,6.0,86,0.00,,,0.17,Wunderground v.1.15,2013-05-06 16:59:00,
2013-05-06 13:04:00,56.1,51.3,29.85,SW,233,5.0,10.0,84,0.00,,,0.17,Wunderground v.1.15,2013-05-06 17:04:00,
2013-05-06 13:09:00,56.1,51.7,29.85,SW,233,3.0,6.0,85,0.00,,,0.17,Wunderground v.1.15,2013-05-06 17:09:00,
2013-05-06 13:14:00,55.7,50.3,29.85,West,260,6.0,8.0,82,0.00,,,0.17,Wunderground v.1.15,2013-05-06 17:14:00,
2013-05-06 13:19:00,55.2,50.4,29.85,WNW,284,4.0,9.0,84,0.00,,,0.17,Wunderground v.1.15,2013-05-06 17:19:00,
2013-05-06 13:24:00,54.5,49.8,29.85,West,266,6.0,10.0,84,0.00,,,0.17,Wunderground v.1.15,2013-05-06 17:24:00,
2013-05-06 13:29:00,54.3,49.6,29.85,WNW,297,3.0,8.0,84,0.00,,,0.17,Wunderground v.1.15,2013-05-06 17:29:00,
2013-05-06 13:34:00,54.6,50.2,29.85,West,277,4.0,8.0,85,0.00,,,0.17,Wunderground v.1.15,2013-05-06 17:34:00,
2013-05-06 13:39:00,54.9,50.8,29.85,WNW,301,4.0,6.0,86,0.00,,,0.17,Wunderground v.1.15,2013-05-06 17:39:00,
2013-05-06 13:44:00,55.6,51.2,29.85,WNW,288,6.0,7.0,85,0.00,,,0.17,Wunderground v.1.15,2013-05-06 17:44:00,
2013-05-06 13:49:00,56.2,50.4,29.85,SW,233,5.0,7.0,81,0.00,,,0.17,Wunderground v.1.15,2013-05-06 17:49:00,
2013-05-06 13:54:00,56.5,49.7,29.85,SW,228,3.0,8.0,78,0.00,,,0.17,Wunderground v.1.15,2013-05-06 17:54:00,
2013-05-06 13:59:00,56.8,49.3,29.85,West,265,4.0,6.0,76,0.00,,,0.17,Wunderground v.1.15,2013-05-06 17:59:00,
2013-05-06 14:04:00,56.8,49.7,29.85,WNW,284,4.0,8.0,77,0.00,,,0.17,Wunderground v.1.15,2013-05-06 18:04:00,
2013-05-06 14:09:00,56.9,50.1,29.85,West,280,4.0,7.0,78,0.00,,,0.17,Wunderground v.1.15,2013-05-06 18:09:00,
2013-05-06 14:14:00,57.6,50.1,29.84,SSE,149,3.0,9.0,76,0.00,,,0.17,Wunderground v.1.15,2013-05-06 18:14:00,
2013-05-06 14:19:00,58.0,50.1,29.84,SE,139,4.0,8.0,75,0.00,,,0.17,Wunderground v.1.15,2013-05-06 18:19:00,
2013-05-06 14:24:00,57.9,49.7,29.84,WSW,248,6.0,9.0,74,0.00,,,0.17,Wunderground v.1.15,2013-05-06 18:24:00,
2013-05-06 14:29:00,57.7,49.8,29.84,West,264,8.0,12.0,75,0.00,,,0.17,Wunderground v.1.15,2013-05-06 18:29:00,
2013-05-06 14:34:00,57.2,49.3,29.84,West,259,11.0,12.0,75,0.00,,,0.17,Wunderground v.1.15,2013-05-06 18:34:00,
2013-05-06 14:39:00,57.1,49.6,29.84,SSW,212,6.0,11.0,76,0.00,,,0.17,Wunderground v.1.15,2013-05-06 18:39:00,
2013-05-06 14:44:00,57.6,50.8,29.84,South,172,1.0,11.0,78,0.00,,,0.17,Wunderground v.1.15,2013-05-06 18:44:00,
2013-05-06 14:49:00,57.7,49.1,29.84,West,270,8.0,14.0,73,0.00,,,0.17,Wunderground v.1.15,2013-05-06 18:49:00,
2013-05-06 14:54:00,57.8,49.2,29.84,West,262,10.0,14.0,73,0.00,,,0.17,Wunderground v.1.15,2013-05-06 18:54:00,
2013-05-06 14:59:00,58.5,50.2,29.84,WSW,253,14.0,14.0,74,0.00,,,0.17,Wunderground v.1.15,2013-05-06 18:59:00,
2013-05-06 15:04:00,58.6,48.8,29.84,West,260,11.0,16.0,70,0.00,,,0.17,Wunderground v.1.15,2013-05-06 19:04:00,
2013-05-06 15:09:00,58.7,51.2,29.84,SW,233,12.0,12.0,76,0.00,,,0.17,Wunderground v.1.15,2013-05-06 19:09:00,
2013-05-06 15:14:00,58.6,49.6,29.84,South,181,5.0,12.0,72,0.00,,,0.17,Wunderground v.1.15,2013-05-06 19:14:00,
2013-05-06 15:19:00,58.2,50.0,29.84,SW,217,2.0,11.0,74,0.00,,,0.17,Wunderground v.1.15,2013-05-06 19:19:00,
2013-05-06 15:24:00,59.0,50.4,29.84,WSW,245,9.0,13.0,73,0.00,,,0.17,Wunderground v.1.15,2013-05-06 19:24:00,
2013-05-06 15:29:00,58.6,49.6,29.84,SW,227,9.0,15.0,72,0.00,,,0.17,Wunderground v.1.15,2013-05-06 19:29:00,
2013-05-06 15:34:00,58.3,49.3,29.84,SW,233,9.0,15.0,72,0.00,,,0.17,Wunderground v.1.15,2013-05-06 19:34:00,
2013-05-06 15:39:00,58.3,49.7,29.84,WSW,255,16.0,16.0,73,0.00,,,0.17,Wunderground v.1.15,2013-05-06 19:39:00,
2013-05-06 15:44:00,57.6,49.0,29.84,WSW,255,12.0,16.0,73,0.00,,,0.17,Wunderground v.1.15,2013-05-06 19:44:00,
2013-05-06 15:49:00,57.4,49.5,29.84,West,262,10.0,14.0,75,0.00,,,0.17,Wunderground v.1.15,2013-05-06 19:49:00,
2013-05-06 15:54:00,57.0,49.5,29.84,WSW,249,12.0,14.0,76,0.00,,,0.17,Wunderground v.1.15,2013-05-06 19:54:00,
2013-05-06 15:59:00,56.9,50.1,29.84,WSW,245,3.0,16.0,78,0.00,,,0.17,Wunderground v.1.15,2013-05-06 19:59:00,
2013-05-06 16:04:00,57.2,50.4,29.84,WSW,239,9.0,16.0,78,0.00,,,0.17,Wunderground v.1.15,2013-05-06 20:04:00,
2013-05-06 16:09:00,57.0,50.2,29.84,West,263,7.0,13.0,78,0.00,,,0.17,Wunderground v.1.15,2013-05-06 20:09:00,
2013-05-06 16:14:00,57.0,49.5,29.84,West,278,8.0,13.0,76,0.00,,,0.17,Wunderground v.1.15,2013-05-06 20:14:00,
2013-05-06 16:19:00,57.0,50.2,29.84,West,259,8.0,11.0,78,0.00,,,0.17,Wunderground v.1.15,2013-05-06 20:19:00,
2013-05-06 16:24:00,56.7,49.9,29.84,WSW,252,13.0,14.0,78,0.00,,,0.17,Wunderground v.1.15,2013-05-06 20:24:00,
2013-05-06 16:29:00,56.6,50.2,29.84,WSW,256,8.0,11.0,79,0.00,,,0.17,Wunderground v.1.15,2013-05-06 20:29:00,
2013-05-06 16:34:00,56.5,50.1,29.84,WSW,257,7.0,11.0,79,0.00,,,0.17,Wunderground v.1.15,2013-05-06 20:34:00,
2013-05-06 16:39:00,56.4,50.3,29.84,SW,217,6.0,11.0,80,0.00,,,0.17,Wunderground v.1.15,2013-05-06 20:39:00,
2013-05-06 16:44:00,56.0,49.9,29.84,SW,228,11.0,13.0,80,0.00,,,0.17,Wunderground v.1.15,2013-05-06 20:44:00,
2013-05-06 16:49:00,55.7,50.3,29.84,WSW,245,7.0,14.0,82,0.00,,,0.17,Wunderground v.1.15,2013-05-06 20:49:00,
2013-05-06 16:54:00,55.7,50.3,29.84,SSW,200,3.0,14.0,82,0.00,,,0.17,Wunderground v.1.15,2013-05-06 20:54:00,
2013-05-06 16:59:00,55.8,50.7,29.84,WSW,257,9.0,10.0,83,0.00,,,0.17,Wunderground v.1.15,2013-05-06 20:59:00,
2013-05-06 17:04:00,55.8,50.4,29.84,WSW,248,6.0,10.0,82,0.00,,,0.17,Wunderground v.1.15,2013-05-06 21:04:00,
2013-05-06 17:09:00,55.9,50.2,29.84,SW,236,10.0,10.0,81,0.00,,,0.17,Wunderground v.1.15,2013-05-06 21:09:00,
2013-05-06 17:14:00,56.5,51.1,29.84,SW,219,7.0,10.0,82,0.00,,,0.17,Wunderground v.1.15,2013-05-06 21:14:00,
2013-05-06 17:19:00,56.7,50.6,29.84,WSW,253,6.0,9.0,80,0.00,,,0.17,Wunderground v.1.15,2013-05-06 21:19:00,
2013-05-06 17:24:00,56.9,50.8,29.84,West,260,10.0,10.0,80,0.00,,,0.17,Wunderground v.1.15,2013-05-06 21:24:00,
2013-05-06 17:29:00,57.1,51.0,29.84,WSW,243,2.0,8.0,80,0.00,,,0.17,Wunderground v.1.15,2013-05-06 21:29:00,
2013-05-06 17:34:00,57.2,50.7,29.84,WSW,245,5.0,10.0,79,0.00,,,0.17,Wunderground v.1.15,2013-05-06 21:34:00,
2013-05-06 17:39:00,56.9,50.8,29.84,WSW,250,5.0,11.0,80,0.00,,,0.17,Wunderground v.1.15,2013-05-06 21:39:00,
2013-05-06 17:44:00,56.5,50.7,29.84,WSW,255,4.0,11.0,81,0.00,,,0.17,Wunderground v.1.15,2013-05-06 21:44:00,
2013-05-06 17:49:00,56.4,50.6,29.84,WSW,239,1.0,8.0,81,0.00,,,0.17,Wunderground v.1.15,2013-05-06 21:49:00,
2013-05-06 17:54:00,56.4,51.0,29.84,WSW,258,1.0,8.0,82,0.00,,,0.17,Wunderground v.1.15,2013-05-06 21:54:00,
2013-05-06 17:59:00,56.4,51.0,29.84,West,271,4.0,7.0,82,0.00,,,0.17,Wunderground v.1.15,2013-05-06 21:59:00,
2013-05-06 18:04:00,56.2,50.8,29.84,WSW,255,4.0,11.0,82,0.00,,,0.17,Wunderground v.1.15,2013-05-06 22:04:00,
2013-05-06 18:09:00,56.3,51.5,29.84,SSW,204,7.0,7.0,84,0.00,,,0.17,Wunderground v.1.15,2013-05-06 22:09:00,
2013-05-06 18:14:00,56.3,50.5,29.84,WSW,252,8.0,12.0,81,0.00,,,0.17,Wunderground v.1.15,2013-05-06 22:14:00,
2013-05-06 18:19:00,55.9,50.5,29.84,West,262,3.0,7.0,82,0.00,,,0.17,Wunderground v.1.15,2013-05-06 22:19:00,
2013-05-06 18:24:00,55.7,50.6,29.85,West,267,4.0,7.0,83,0.00,,,0.17,Wunderground v.1.15,2013-05-06 22:24:00,
2013-05-06 18:29:00,55.6,50.5,29.85,WSW,248,1.0,6.0,83,0.00,,,0.17,Wunderground v.1.15,2013-05-06 22:29:00,
2013-05-06 18:34:00,55.6,50.8,29.85,SW,217,3.0,6.0,84,0.00,,,0.17,Wunderground v.1.15,2013-05-06 22:34:00,
2013-05-06 18:39:00,55.5,51.1,29.85,West,269,1.0,4.0,85,0.00,,,0.17,Wunderground v.1.15,2013-05-06 22:39:00,
2013-05-06 18:44:00,55.4,50.6,29.85,WSW,248,1.0,4.0,84,0.00,,,0.17,Wunderground v.1.15,2013-05-06 22:44:00,
2013-05-06 18:49:00,55.4,50.6,29.85,WNW,294,0.0,2.0,84,0.00,,,0.17,Wunderground v.1.15,2013-05-06 22:49:00,
2013-05-06 18:54:00,55.4,51.0,29.85,West,269,1.0,2.0,85,0.00,,,0.17,Wunderground v.1.15,2013-05-06 22:54:00,
2013-05-06 18:59:00,55.4,51.0,29.85,West,273,1.0,2.0,85,0.00,,,0.17,Wunderground v.1.15,2013-05-06 22:59:00,
2013-05-06 19:04:00,55.4,50.6,29.84,West,274,2.0,3.0,84,0.00,,,0.17,Wunderground v.1.15,2013-05-06 23:04:00,
2013-05-06 19:09:00,55.4,51.0,29.84,West,259,1.0,3.0,85,0.00,,,0.17,Wunderground v.1.15,2013-05-06 23:09:00,
2013-05-06 19:14:00,55.4,50.3,29.85,West,266,2.0,4.0,83,0.00,,,0.17,Wunderground v.1.15,2013-05-06 23:14:00,
2013-05-06 19:19:00,55.5,50.7,29.85,WSW,257,2.0,4.0,84,0.00,,,0.17,Wunderground v.1.15,2013-05-06 23:19:00,
2013-05-06 19:24:00,55.6,51.2,29.85,West,264,0.0,4.0,85,0.00,,,0.17,Wunderground v.1.15,2013-05-06 23:24:00,
2013-05-06 19:29:00,55.6,50.8,29.85,West,270,2.0,4.0,84,0.00,,,0.17,Wunderground v.1.15,2013-05-06 23:29:00,
2013-05-06 19:34:00,55.5,50.4,29.85,West,273,1.0,4.0,83,0.00,,,0.17,Wunderground v.1.15,2013-05-06 23:34:00,
2013-05-06 19:39:00,55.6,50.5,29.85,SW,235,2.0,3.0,83,0.00,,,0.17,Wunderground v.1.15,2013-05-06 23:39:00,
2013-05-06 19:44:00,55.5,50.7,29.85,SW,229,0.0,3.0,84,0.00,,,0.17,Wunderground v.1.15,2013-05-06 23:44:00,
2013-05-06 19:49:00,55.5,51.1,29.85,WSW,255,2.0,3.0,85,0.00,,,0.17,Wunderground v.1.15,2013-05-06 23:49:00,
2013-05-06 19:54:00,55.3,50.9,29.85,SW,235,2.0,4.0,85,0.00,,,0.17,Wunderground v.1.15,2013-05-06 23:54:00,
2013-05-06 19:59:00,55.1,50.4,29.86,West,262,3.0,6.0,84,0.00,,,0.17,Wunderground v.1.15,2013-05-06 23:59:00,
2013-05-06 20:04:00,54.9,50.2,29.86,WSW,248,2.0,6.0,84,0.00,,,0.17,Wunderground v.1.15,2013-05-07 00:04:00,
2013-05-06 20:09:00,54.8,50.1,29.86,SW,225,1.0,4.0,84,0.00,,,0.17,Wunderground v.1.15,2013-05-07 00:09:00,
2013-05-06 20:14:00,54.6,50.2,29.86,SW,236,1.0,4.0,85,0.00,,,0.17,Wunderground v.1.15,2013-05-07 00:14:00,
2013-05-06 20:19:00,54.4,50.0,29.86,SW,219,0.0,2.0,85,0.00,,,0.17,Wunderground v.1.15,2013-05-07 00:19:00,
2013-05-06 20:24:00,54.3,50.2,29.86,SW,226,1.0,2.0,86,0.00,,,0.17,Wunderground v.1.15,2013-05-07 00:24:00,
2013-05-06 20:29:00,54.2,50.1,29.86,WSW,243,0.0,1.0,86,0.00,,,0.17,Wunderground v.1.15,2013-05-07 00:29:00,
2013-05-06 20:34:00,54.1,50.3,29.86,WSW,240,0.0,1.0,87,0.00,,,0.17,Wunderground v.1.15,2013-05-07 00:34:00,
2013-05-06 20:39:00,53.9,50.4,29.86,WSW,240,0.0,1.0,88,0.00,,,0.17,Wunderground v.1.15,2013-05-07 00:39:00,
2013-05-06 20:44:00,53.8,50.6,29.87,WSW,240,0.0,1.0,89,0.00,,,0.17,Wunderground v.1.15,2013-05-07 00:44:00,
2013-05-06 20:49:00,53.6,50.4,29.87,WSW,240,0.0,0.0,89,0.00,,,0.17,Wunderground v.1.15,2013-05-07 00:49:00,
2013-05-06 20:54:00,53.6,50.7,29.87,WSW,240,0.0,1.0,90,0.00,,,0.17,Wunderground v.1.15,2013-05-07 00:54:00,
2013-05-06 20:59:00,53.5,50.6,29.87,WSW,240,0.0,0.0,90,0.00,,,0.17,Wunderground v.1.15,2013-05-07 00:59:00,
2013-05-06 21:04:00,53.4,50.5,29.87,West,259,0.0,1.0,90,0.00,,,0.17,Wunderground v.1.15,2013-05-07 01:04:00,
2013-05-06 21:09:00,53.4,50.5,29.87,WSW,250,0.0,0.0,90,0.00,,,0.17,Wunderground v.1.15,2013-05-07 01:09:00,
2013-05-06 21:14:00,53.4,50.2,29.87,WSW,250,0.0,1.0,89,0.00,,,0.17,Wunderground v.1.15,2013-05-07 01:14:00,
2013-05-06 21:19:00,53.3,50.1,29.87,SW,229,0.0,0.0,89,0.00,,,0.17,Wunderground v.1.15,2013-05-07 01:19:00,
2013-05-06 21:24:00,53.3,50.4,29.87,SW,229,0.0,0.0,90,0.00,,,0.17,Wunderground v.1.15,2013-05-07 01:24:00,
2013-05-06 21:29:00,53.4,51.1,29.88,SW,230,0.0,0.0,92,0.00,,,0.17,Wunderground v.1.15,2013-05-07 01:29:00,
2013-05-06 21:34:00,53.2,50.9,29.88,SW,229,0.0,0.0,92,0.00,,,0.17,Wunderground v.1.15,2013-05-07 01:34:00,
2013-05-06 21:39:00,53.0,50.7,29.88,SW,233,0.0,0.0,92,0.00,,,0.17,Wunderground v.1.15,2013-05-07 01:39:00,
2013-05-06 21:44:00,52.9,50.6,29.88,WSW,248,0.0,0.0,92,0.00,,,0.17,Wunderground v.1.15,2013-05-07 01:44:00,
2013-05-06 21:49:00,52.8,50.8,29.88,WSW,248,0.0,0.0,93,0.00,,,0.17,Wunderground v.1.15,2013-05-07 01:49:00,
2013-05-06 21:54:00,52.9,50.9,29.88,West,266,0.0,0.0,93,0.00,,,0.17,Wunderground v.1.15,2013-05-07 01:54:00,
2013-05-06 21:59:00,52.8,50.8,29.88,West,271,0.0,0.0,93,0.00,,,0.17,Wunderground v.1.15,2013-05-07 01:59:00,
2013-05-06 22:04:00,52.7,50.7,29.88,WNW,282,2.0,3.0,93,0.00,,,0.17,Wunderground v.1.15,2013-05-07 02:04:00,
2013-05-06 22:09:00,52.5,50.5,29.88,West,274,1.0,2.0,93,0.00,,,0.17,Wunderground v.1.15,2013-05-07 02:09:00,
2013-05-06 22:14:00,52.4,50.4,29.89,West,266,0.0,2.0,93,0.00,,,0.17,Wunderground v.1.15,2013-05-07 02:14:00,
2013-05-06 22:19:00,52.2,50.2,29.89,West,265,0.0,1.0,93,0.00,,,0.17,Wunderground v.1.15,2013-05-07 02:19:00,
2013-05-06 22:24:00,52.0,50.0,29.89,West,266,0.0,1.0,93,0.00,,,0.17,Wunderground v.1.15,2013-05-07 02:24:00,
2013-05-06 22:29:00,51.8,50.1,29.89,West,265,0.0,0.0,94,0.00,,,0.17,Wunderground v.1.15,2013-05-07 02:29:00,
2013-05-06 22:34:00,51.6,49.9,29.90,West,266,0.0,0.0,94,0.00,,,0.17,Wunderground v.1.15,2013-05-07 02:34:00,
2013-05-06 22:39:00,51.4,49.7,29.90,West,266,0.0,0.0,94,0.00,,,0.17,Wunderground v.1.15,2013-05-07 02:39:00,
2013-05-06 22:44:00,51.2,49.5,29.90,West,267,0.0,0.0,94,0.00,,,0.17,Wunderground v.1.15,2013-05-07 02:44:00,
2013-05-06 22:49:00,51.1,49.7,29.90,West,266,0.0,0.0,95,0.00,,,0.17,Wunderground v.1.15,2013-05-07 02:49:00,
2013-05-06 22:54:00,51.1,49.7,29.90,West,266,0.0,0.0,95,0.00,,,0.17,Wunderground v.1.15,2013-05-07 02:54:00,
2013-05-06 22:59:00,51.0,49.6,29.90,West,266,0.0,0.0,95,0.00,,,0.17,Wunderground v.1.15,2013-05-07 02:59:00,
2013-05-06 23:04:00,51.1,50.0,29.90,NE,44,0.0,1.0,96,0.00,,,0.17,Wunderground v.1.15,2013-05-07 03:04:00,
2013-05-06 23:09:00,51.5,50.7,29.90,East,82,1.0,3.0,97,0.00,,,0.17,Wunderground v.1.15,2013-05-07 03:09:00,
2013-05-06 23:14:00,51.6,50.8,29.90,NE,50,3.0,3.0,97,0.00,,,0.17,Wunderground v.1.15,2013-05-07 03:14:00,
2013-05-06 23:19:00,51.6,50.5,29.89,NE,53,3.0,4.0,96,0.00,,,0.17,Wunderground v.1.15,2013-05-07 03:19:00,
2013-05-06 23:24:00,51.6,50.8,29.90,ENE,60,2.0,4.0,97,0.00,,,0.17,Wunderground v.1.15,2013-05-07 03:24:00,
2013-05-06 23:29:00,51.6,50.8,29.90,East,86,2.0,4.0,97,0.00,,,0.17,Wunderground v.1.15,2013-05-07 03:29:00,
2013-05-06 23:34:00,51.6,50.8,29.90,NE,51,1.0,4.0,97,0.00,,,0.17,Wunderground v.1.15,2013-05-07 03:34:00,
2013-05-06 23:39:00,51.7,50.9,29.90,East,79,2.0,2.0,97,0.00,,,0.17,Wunderground v.1.15,2013-05-07 03:39:00,
2013-05-06 23:44:00,51.6,50.8,29.90,ENE,76,0.0,2.0,97,0.00,,,0.17,Wunderground v.1.15,2013-05-07 03:44:00,
2013-05-06 23:49:00,51.6,50.8,29.90,ENE,65,1.0,1.0,97,0.00,,,0.17,Wunderground v.1.15,2013-05-07 03:49:00,
2013-05-06 23:54:00,51.5,50.7,29.89,East,79,0.0,2.0,97,0.00,,,0.17,Wunderground v.1.15,2013-05-07 03:54:00,